TimeCDT,TemperatureF,Dew PointF,Humidity,Sea Level PressureIn,VisibilityMPH,Wind Direction,Wind SpeedMPH,Gust SpeedMPH,PrecipitationIn,Events,Conditions,WindDirDegrees,DateUTC
12:53 AM,73.9,72.0,93,29.93,5.0,SSE,6.9,-,N/A,,Overcast,160,2013-04-16 05:53:00
1:53 AM,73.9,72.0,93,29.92,3.0,SSE,6.9,16.1,0.01,,Overcast,160,2013-04-16 06:53:00
2:53 AM,73.9,72.0,93,29.93,5.0,SSE,8.1,-,0.00,,Overcast,160,2013-04-16 07:53:00
3:53 AM,73.9,72.0,93,29.93,7.0,SSE,8.1,16.1,N/A,,Overcast,160,2013-04-16 08:53:00
4:53 AM,73.9,71.1,91,29.93,7.0,SSE,4.6,-,N/A,,Overcast,160,2013-04-16 09:53:00
5:39 AM,75.2,71.6,89,29.95,9.0,Variable,6.9,-,N/A,,Overcast,0,2013-04-16 10:39:00
5:53 AM,73.9,71.1,91,29.95,7.0,Variable,5.8,-,N/A,,Overcast,0,2013-04-16 10:53:00
6:53 AM,73.4,71.6,94,29.97,9.0,Variable,4.6,-,N/A,,Overcast,0,2013-04-16 11:53:00
7:30 AM,73.4,71.6,94,29.98,9.0,SSE,5.8,-,N/A,,Overcast,150,2013-04-16 12:30:00
7:53 AM,73.9,71.1,91,29.99,10.0,Variable,4.6,-,N/A,,Overcast,0,2013-04-16 12:53:00
8:53 AM,75.0,70.0,84,29.99,10.0,SSE,6.9,-,N/A,,Overcast,150,2013-04-16 13:53:00
9:00 AM,75.2,69.8,83,29.99,10.0,Variable,4.6,-,N/A,,Overcast,0,2013-04-16 14:00:00
9:09 AM,75.2,69.8,83,30.00,10.0,Variable,4.6,-,N/A,,Overcast,0,2013-04-16 14:09:00
9:53 AM,75.9,71.1,85,30.01,10.0,SSE,10.4,-,N/A,,Overcast,160,2013-04-16 14:53:00
10:53 AM,78.1,71.1,79,30.04,10.0,SSE,9.2,-,N/A,,Overcast,150,2013-04-16 15:53:00
11:53 AM,78.1,71.1,79,30.04,10.0,South,6.9,16.1,N/A,,Overcast,170,2013-04-16 16:53:00
12:05 PM,78.8,71.6,78,30.04,10.0,SSE,11.5,16.1,N/A,,Overcast,160,2013-04-16 17:05:00
12:53 PM,80.1,72.0,76,30.03,10.0,South,12.7,-,N/A,,Overcast,170,2013-04-16 17:53:00
1:00 PM,80.6,71.6,74,30.03,10.0,SSE,10.4,-,N/A,,Overcast,150,2013-04-16 18:00:00
1:53 PM,82.0,72.0,71,30.02,10.0,SSE,8.1,-,N/A,,Overcast,160,2013-04-16 18:53:00
2:00 PM,80.6,71.6,74,30.02,10.0,South,12.7,17.3,N/A,,Overcast,170,2013-04-16 19:00:00
2:53 PM,82.0,72.0,71,30.01,10.0,South,12.7,20.7,N/A,,Mostly Cloudy,180,2013-04-16 19:53:00
3:29 PM,80.6,71.6,74,30.00,10.0,South,16.1,23.0,N/A,,Mostly Cloudy,170,2013-04-16 20:29:00
3:36 PM,82.4,71.6,70,30.01,10.0,SSE,11.5,21.9,N/A,,Mostly Cloudy,160,2013-04-16 20:36:00
3:53 PM,81.0,71.1,72,30.01,10.0,SSE,10.4,21.9,N/A,,Mostly Cloudy,160,2013-04-16 20:53:00
4:53 PM,81.0,72.0,74,30.01,10.0,South,11.5,20.7,N/A,,Mostly Cloudy,180,2013-04-16 21:53:00
5:02 PM,80.6,71.6,74,30.01,10.0,South,12.7,21.9,N/A,,Mostly Cloudy,180,2013-04-16 22:02:00
5:51 PM,78.8,71.6,78,30.01,10.0,South,8.1,-,N/A,,Overcast,170,2013-04-16 22:51:00
5:53 PM,79.0,71.1,77,30.01,10.0,South,6.9,-,N/A,,Overcast,170,2013-04-16 22:53:00
6:53 PM,78.1,71.1,79,30.01,10.0,South,6.9,-,N/A,,Mostly Cloudy,170,2013-04-16 23:53:00
7:53 PM,78.1,71.1,79,30.01,10.0,SSE,5.8,-,N/A,,Mostly Cloudy,160,2013-04-17 00:53:00
8:00 PM,77.0,71.6,83,30.01,10.0,SSE,8.1,-,N/A,,Mostly Cloudy,150,2013-04-17 01:00:00
8:17 PM,77.0,71.6,83,30.02,10.0,South,6.9,-,N/A,,Mostly Cloudy,170,2013-04-17 01:17:00
8:53 PM,77.0,71.1,82,30.03,10.0,SSE,6.9,-,N/A,,Overcast,160,2013-04-17 01:53:00
9:53 PM,77.0,71.1,82,30.04,10.0,SSE,4.6,-,N/A,,Partly Cloudy,160,2013-04-17 02:53:00
10:53 PM,75.9,71.1,85,30.04,10.0,Variable,4.6,-,N/A,,Partly Cloudy,0,2013-04-17 03:53:00
11:22 PM,75.2,71.6,89,30.04,10.0,SSE,4.6,-,N/A,,Mostly Cloudy,150,2013-04-17 04:22:00
11:45 PM,75.2,71.6,89,30.03,10.0,SE,8.1,-,N/A,,Overcast,140,2013-04-17 04:45:00
11:53 PM,75.9,71.1,85,30.03,9.0,Variable,4.6,-,N/A,,Overcast,0,2013-04-17 04:53:00